[[{"header":{"parameterUnit":"m.s-1","parameterCategory":1,"la1":30.2991,"la2":30.254,"lo1":-89.0895,"lo2":-89.0444,"dy":0.0017,"dx":0.0017,"nx":28,"ny":28,"refTime":"2023-08-06T03:00:00:Z","depth":0,"parameterNumber":2,"parameterNumberName":"U-component_of_WINDS"},"data":[0,0,0,0,0,0,0,0,0,0,0,0,0,0,0,0,0,0,0,0,0,0,0,0,0,0,0,0,0,0,0,0,0,0,0,0,0,0,0,0,0,0,0,0,0,0,0,0,0,0,0,0,0,0,0,0,0,0,3.7396,3.7397,0,3.7481,3.7482,3.7483,3.7372,3.7368,3.7364,3.736,3.745,3.7456,3.7462,0,0,0,0,0,0,0,0,0,0,0,0,0,3.7138,3.7144,3.7396,3.7397,3.7398,3.7481,3.7482,3.7483,3.7373,3.7368,3.7363,3.7359,3.7448,3.7455,3.7462,0,0,0,0,0,0,0,0,0,0,0,0,0,3.7239,3.7145,3.7396,3.7353,3.735,3.748,3.7482,3.7483,3.7374,3.7368,3.7362,3.7356,3.7446,3.7454,3.7463,3.7641,0,0,3.7492,3.7496,0,0,0,0,0,0,0,0,3.7234,3.7249,3.7358,3.7356,3.7353,3.741,3.7423,3.7536,3.7375,3.7365,3.736,3.7353,3.7442,3.7451,3.748,3.7645,3.7649,3.7492,3.7498,3.7502,3.7504,0,0,0,0,0,0,0,3.7227,3.7245,3.743,3.736,3.7357,3.7329,3.7337,3.7444,3.7436,3.7365,3.7358,3.7369,3.7439,3.7471,3.7481,3.765,3.7492,3.75,3.7506,3.7509,3.7959,3.7965,0,0,0,0,0,0,3.7225,3.724,3.7427,3.7432,3.7277,3.7339,3.7348,3.7398,3.7435,3.7434,3.7374,3.7364,3.7459,3.7471,3.7484,3.769,3.7502,3.751,3.7516,3.7953,3.7961,3.7967,0,0,0,0,0,0,3.722,3.7243,3.7423,3.7334,3.7355,3.735,3.7407,3.7403,3.7435,3.7441,3.7439,3.7409,3.7454,3.7471,3.7601,3.7692,3.7515,3.7523,3.7945,3.7955,3.7964,3.8107,0,0,0,0,0,0,3.7213,3.7241,3.7309,3.7336,3.736,3.754,3.7413,3.7409,3.745,3.7437,3.7473,3.7473,3.7451,3.7588,3.761,3.7701,3.753,3.7937,3.795,3.7961,3.8094,3.812,3.8142,0,0,0,0,0,3.7204,3.7348,3.7313,3.7336,3.7444,3.7546,3.7559,3.753,3.7458,3.7526,3.7529,3.7472,3.7679,3.7602,3.7626,3.7722,3.7931,3.7946,3.796,3.8083,3.8115,3.8142,0,0,0,0,0,0,3.7334,3.7351,3.7313,3.7469,3.7506,3.7527,3.7611,3.7565,3.7625,3.761,3.7572,3.7581,3.7719,3.7733,3.7648,3.7892,3.7793,3.7813,3.7878,3.7908,3.7932,3.7925,3.7538,0,0,0,0,0,3.738,3.7461,3.7471,3.7608,3.7629,3.7617,3.766,3.7634,3.7671,3.7687,3.77,3.7739,3.7811,3.7861,3.7929,3.8095,3.81,3.8172,3.8197,3.8216,3.8234,3.8319,3.835,3.8015,3.8015,3.8015,0,0,3.7478,3.7497,3.755,3.7634,3.766,3.7743,3.7631,3.7725,3.7786,3.7701,3.7824,3.7835,3.7875,3.8023,3.8089,3.8039,3.8327,3.8235,3.8251,3.8257,3.8337,3.8369,3.8397,3.8025,3.8023,3.8022,0,0,3.7697,3.7721,3.7835,3.7863,3.7902,3.7893,3.792,3.7947,3.795,3.8072,3.8009,3.8081,3.8209,3.8239,3.8271,3.8498,3.8446,3.8521,3.8648,3.8731,3.8758,3.8781,3.8859,3.8888,3.8539,3.8539,3.8539,0,3.7813,3.7936,3.7901,3.7998,3.8035,3.796,3.8075,3.8104,3.8164,3.8192,3.8135,3.829,3.8313,3.8465,3.8519,3.8549,3.8578,3.8517,3.8757,3.8779,3.8801,3.8874,3.8904,3.8548,3.8547,3.8546,3.8545,0,3.8075,3.8162,3.8249,3.8307,3.8355,3.8461,3.844,3.8493,3.8461,3.8458,3.8581,3.8604,3.8674,3.8708,3.868,3.8856,3.8823,3.8763,3.8661,3.8842,3.891,3.8939,3.856,3.8557,3.8554,3.8552,0,0,3.8381,3.8414,3.8447,3.847,3.8507,3.8573,3.8674,3.874,3.8784,3.8828,3.891,3.9018,3.8961,3.8997,3.8971,3.9045,3.9219,3.8975,3.8975,3.9017,3.9409,3.9453,3.9487,3.9185,3.919,3.9194,3.9405,0,3.8598,3.8772,3.8741,3.891,3.8987,3.8915,3.9002,3.9034,3.9032,3.9097,3.9095,3.9171,3.9091,3.9112,3.9182,3.9183,3.9297,3.9168,3.926,3.9264,3.925,3.9523,3.9571,3.9769,3.9432,3.9437,3.944,0,3.8875,3.8926,3.9102,3.9122,3.9153,3.9233,3.9288,3.9352,3.9385,3.9378,3.9417,3.9377,3.9476,3.9373,3.9508,3.9421,3.9456,3.9463,3.9469,3.9476,3.9362,3.9535,3.9832,3.9861,3.9482,3.9479,3.9476,0,3.9076,3.9189,3.9308,3.933,3.9358,3.9415,3.9429,3.9456,3.9496,3.9545,3.9571,3.9632,3.9665,3.9712,3.9688,3.9617,3.9826,3.9723,3.9822,3.9823,3.9869,3.9867,4.0174,3.9896,3.9895,3.9895,3.9894,0,3.9321,3.9431,3.9398,3.9471,3.9591,3.9554,3.9673,3.9679,3.9703,3.9774,3.9717,3.9785,3.975,3.9816,3.9798,3.991,3.9927,3.9923,3.9917,3.9927,3.9928,3.9949,3.9934,3.9903,3.9901,3.9899,3.9898,0,3.9566,3.9549,3.9673,3.9688,3.9694,3.9781,3.9793,3.986,3.9853,3.9944,3.9964,3.9953,4.0027,4.0007,4.0089,4.0076,4.0217,4.0195,4.0206,4.02,4.0299,4.0289,4.063,4.0671,4.0369,4.0371,4.0374,0,3.9723,3.9805,3.9827,3.987,3.9888,3.9959,3.9999,3.9965,4.0009,4.005,4.0112,4.018,4.0233,4.0354,4.0353,4.0414,4.0391,4.0506,4.04,4.0407,4.039,4.0384,4.0391,4.0527,4.0531,4.0534,4.0536,0,4.0001,3.9988,4.0047,4.0103,4.0152,4.0195,4.0232,4.0271,4.0239,4.0291,4.0364,4.0405,4.0486,4.0554,4.0608,4.0622,4.0574,4.0569,4.0595,4.0606,4.0608,4.0605,4.0261,4.0562,4.0559,4.0557,4.0556,4.0555,4.0205,4.0273,4.0298,4.0366,4.0389,4.0425,4.0487,4.0487,4.0547,4.0609,4.0585,4.0669,4.0696,4.0765,4.0785,4.085,4.0806,4.0844,4.0853,4.0863,4.0874,4.0599,4.086,4.0859,4.0859,4.0858,4.0857,0,4.0478,4.049,4.0552,4.0604,4.0657,4.0605,4.0642,4.0689,4.0764,4.0793,4.0845,4.0928,4.0992,4.0995,4.1055,4.1106,4.1084,4.1122,4.1117,4.1121,4.0911,4.0881,4.1138,4.1138,4.1138,4.1138,4.1138,4.1138,4.0626,4.0738,4.0727,4.0848,4.0859,4.0939,4.0965,4.0996,4.1019,4.1113,4.1166,4.1167,4.1185,4.1245,4.1301,4.13,4.1323,4.1369,4.136,4.1164,4.1136,4.1109,4.1081,4.1375,4.1376,4.1564,4.1565,4.1567]},{"header":{"parameterUnit":"m.s-1","parameterCategory":1,"la1":30.2991,"la2":30.254,"lo1":-89.0895,"lo2":-89.0444,"dy":0.0017,"dx":0.0017,"nx":28,"ny":28,"refTime":"2023-08-06T03:00:00:Z","depth":0,"parameterNumber":3,"parameterNumberName":"V-component_of_WINDS"},"data":[0,0,0,0,0,0,0,0,0,0,0,0,0,0,0,0,0,0,0,0,0,0,0,0,0,0,0,0,0,0,0,0,0,0,0,0,0,0,0,0,0,0,0,0,0,0,0,0,0,0,0,0,0,0,0,0,0,0,6.5451,6.5453,0,6.5618,6.562,6.5622,6.5592,6.5589,6.5586,6.5583,6.5745,6.5752,6.5759,0,0,0,0,0,0,0,0,0,0,0,0,0,6.5095,6.5102,6.5451,6.5453,6.5456,6.5618,6.562,6.5623,6.5593,6.5589,6.5585,6.5582,6.5743,6.5751,6.576,0,0,0,0,0,0,0,0,0,0,0,0,0,6.5255,6.5104,6.5451,6.546,6.5463,6.5618,6.562,6.5623,6.5593,6.5589,6.5584,6.558,6.574,6.5751,6.5761,6.5914,0,0,6.5793,6.5798,0,0,0,0,0,0,0,0,6.5246,6.5268,6.5457,6.546,6.5463,6.558,6.5554,6.572,6.5594,6.5543,6.5583,6.5578,6.5693,6.5707,6.5748,6.5922,6.5929,6.5794,6.5801,6.5805,6.5808,0,0,0,0,0,0,0,6.5235,6.526,6.5517,6.5459,6.5463,6.5452,6.547,6.5586,6.5641,6.5548,6.5546,6.5566,6.5694,6.5738,6.5752,6.5931,6.5794,6.5803,6.581,6.5814,6.6234,6.6238,0,0,0,0,0,0,6.5222,6.5251,6.5512,6.5522,6.5342,6.5462,6.5482,6.5547,6.5639,6.565,6.557,6.5564,6.5722,6.5739,6.5757,6.594,6.5805,6.5815,6.5821,6.6229,6.6235,6.624,0,0,0,0,0,0,6.5215,6.5246,6.5505,6.5386,6.5419,6.5473,6.5546,6.5552,6.5596,6.5657,6.5665,6.5606,6.5719,6.5742,6.5875,6.5945,6.582,6.5829,6.6223,6.6231,6.6237,6.6308,0,0,0,0,0,0,6.5205,6.5243,6.5305,6.5388,6.5425,6.5624,6.555,6.5559,6.5616,6.561,6.5692,6.5701,6.5718,6.5859,6.5886,6.5957,6.5838,6.6217,6.6227,6.6235,6.6299,6.6316,6.6331,0,0,0,0,0,6.5192,6.5317,6.5308,6.534,6.5504,6.5628,6.5649,6.5667,6.5622,6.5682,6.572,6.5699,6.5934,6.5873,6.5902,6.5978,6.6213,6.6224,6.6234,6.6292,6.6313,6.6331,0,0,0,0,0,0,6.5238,6.5328,6.5319,6.5476,6.5545,6.5623,6.57,6.5689,6.577,6.5761,6.5778,6.5797,6.5931,6.5968,6.5899,6.6129,6.6066,6.6083,6.61,6.612,6.6136,6.6123,6.5847,0,0,0,0,0,6.5267,6.5364,6.5436,6.5567,6.5602,6.5645,6.57,6.5708,6.5779,6.5807,6.5855,6.5921,6.6009,6.6067,6.6152,6.6305,6.6319,6.6371,6.6387,6.6399,6.6413,6.6492,6.6515,6.6275,6.6275,6.6275,0,0,6.5327,6.5388,6.5448,6.5577,6.5632,6.5727,6.5669,6.5774,6.5844,6.5822,6.595,6.5987,6.6062,6.6204,6.6269,6.6239,6.6483,6.6413,6.6423,6.643,6.6506,6.6528,6.6548,6.6283,6.6281,6.628,0,0,6.5485,6.5542,6.5656,6.5712,6.5795,6.5822,6.585,6.5929,6.5953,6.6083,6.6067,6.6148,6.6301,6.6354,6.6401,6.6575,6.6557,6.6602,6.6684,6.6761,6.678,6.6797,6.6855,6.6877,6.6616,6.6617,6.6617,0,6.5548,6.5695,6.5715,6.5821,6.5876,6.5863,6.5975,6.6027,6.6133,6.617,6.6135,6.6325,6.6374,6.6527,6.6569,6.6609,6.6637,6.6592,6.6776,6.6793,6.6809,6.6865,6.6888,6.6621,6.6621,6.662,6.662,0,6.5766,6.5867,6.5949,6.6053,6.6118,6.6226,6.6259,6.6322,6.6323,6.6353,6.6482,6.6541,6.6636,6.6673,6.6676,6.6825,6.6803,6.6773,6.6709,6.6836,6.6889,6.6911,6.6628,6.6626,6.6625,6.6624,0,0,6.5958,6.6071,6.6101,6.6146,6.6236,6.6313,6.6418,6.6514,6.6565,6.6637,6.6723,6.6852,6.6823,6.6876,6.6884,6.6952,6.7082,6.6913,6.6914,6.6939,6.7245,6.7266,6.7291,6.7071,6.7075,6.7079,6.7237,0,6.6122,6.6312,6.6332,6.65,6.6591,6.6578,6.667,6.6732,6.6762,6.6841,6.6872,6.6962,6.6919,6.695,6.7017,6.7052,6.7143,6.7041,6.7147,6.7151,6.7127,6.7319,6.7342,6.7489,6.7259,6.7262,6.7265,0,6.6339,6.6419,6.6597,6.6671,6.671,6.6792,6.6878,6.6956,6.7024,6.7041,6.7099,6.7097,6.7201,6.7135,6.7276,6.7207,6.7251,6.7274,6.728,6.7289,6.7214,6.733,6.7537,6.7558,6.7298,6.7295,6.7293,0,6.6457,6.6609,6.6734,6.6774,6.6864,6.6922,6.6961,6.7026,6.7081,6.7155,6.719,6.7275,6.7321,6.7385,6.7404,6.7355,6.7543,6.7479,6.7556,6.7555,6.7595,6.7591,6.7809,6.7628,6.7627,6.7627,6.7626,0,6.6636,6.6744,6.6788,6.6865,6.6984,6.7004,6.7121,6.7157,6.7214,6.7294,6.7288,6.7362,6.7385,6.7462,6.7477,6.7589,6.7611,6.7624,6.7626,6.7623,6.7621,6.7651,6.764,6.7633,6.7631,6.763,6.7629,0,6.6788,6.6822,6.6957,6.7032,6.7053,6.7137,6.7198,6.727,6.7298,6.7399,6.7424,6.7467,6.7557,6.7583,6.7691,6.7701,6.7832,6.7826,6.781,6.7809,6.7883,6.7874,6.8125,6.8158,6.7957,6.7959,6.7961,0,6.6899,6.6982,6.7065,6.712,6.7162,6.7251,6.7306,6.7328,6.7385,6.7468,6.7529,6.7619,6.7692,6.7836,6.7874,6.7955,6.795,6.8032,6.7962,6.7955,6.7947,6.7941,6.7947,6.8044,6.8046,6.8048,6.805,0,6.7091,6.7104,6.7186,6.7274,6.7341,6.7411,6.7477,6.7521,6.7551,6.7615,6.7709,6.7766,6.7876,6.7964,6.8046,6.8082,6.807,6.8072,6.8093,6.809,6.8075,6.8081,6.7843,6.8065,6.8064,6.8063,6.8062,6.8061,6.7224,6.7296,6.7365,6.7456,6.7509,6.757,6.7641,6.7677,6.7757,6.785,6.7857,6.7957,6.8019,6.8129,6.8169,6.8245,6.822,6.8252,6.826,6.8266,6.8271,6.8066,6.826,6.826,6.8259,6.8259,6.8259,0,6.7413,6.7457,6.7541,6.7634,6.7704,6.769,6.7761,6.782,6.7909,6.797,6.8042,6.8147,6.8231,6.8276,6.8359,6.841,6.8406,6.8431,6.8426,6.8434,6.829,6.8262,6.8433,6.8433,6.8432,6.8432,6.8432,6.8432,6.752,6.764,6.766,6.7804,6.7846,6.7946,6.7987,6.8043,6.8091,6.8209,6.828,6.831,6.8362,6.8449,6.8524,6.8534,6.8563,6.8591,6.8597,6.8462,6.8444,6.8427,6.8401,6.8598,6.8598,6.8734,6.8736,6.8736]}]]